Weather History for KPMV - May, 2012

Change the Weather History Date:

Monday, May 14, 2012

  Actual Average (KOFF) Record (KOFF)
Temperature  
Mean Temperature 66 °F -  
Max Temperature 82 °F 71 °F 99 °F (2013)
Min Temperature 52 °F 51 °F 36 °F (2014)
Cooling Degree Days 2    
Growing Degree Days 16 (Base 50)    
Moisture  
Dew Point 41 °F    
Average Humidity 38    
Maximum Humidity 67    
Minimum Humidity 20    
Precipitation  
Precipitation 0.00 in - - ()
Sea Level Pressure  
Sea Level Pressure 30.09 in    
Wind  
Wind Speed 5 mph (SSW)    
Max Wind Speed 13 mph    
Max Gust Speed 21 mph    
Visibility 10 miles    
Events      
Averages and records for this station are not official NWS values.
T = Trace of Precipitation, MM = Missing Value Source: NWS Daily Summary

Daily Weather History Graph

Daily Weather History Graph

Search for Another Location

Airport or City:

Trip Planner

Search our weather history database for the weather conditions in past years. The results will help you decide how hot, cold, wet, or windy it might be!

Date:

Astronomy

May. 14, 2012 Rise Set
Actual Time 6:06 AM CDT 8:34 PM CDT
Civil Twilight 5:35 AM CDT 9:05 PM CDT
Nautical Twilight 4:56 AM CDT 9:44 PM CDT
Astronomical Twilight 4:13 AM CDT 10:27 PM CDT
Moon 2:44 AM CDT (5/14) 2:53 PM CDT (5/14)
Length of Visible Light 15h 30m
Length of Day
14h 27m
Waning Crescent, 32% of the Moon is Illuminated
May 14
Waning Crescent
May 20
New
May 28
First Quarter
Jun 4
Full
Jun 11
Last Quarter

Hourly Weather History & Observations

Time (CDT) Temp. Dew Point Humidity Pressure Visibility Wind Dir Wind Speed Gust Speed Precip Events Conditions
12:15 AM 59.2 °F 38.8 °F 47% 30.16 in 10.0 mi SSE 4.6 mph - N/A   Clear
12:35 AM 59.5 °F 38.8 °F 46% 30.16 in 10.0 mi SSE 3.5 mph - N/A   Clear
12:55 AM 59.0 °F 39.2 °F 48% 30.16 in 10.0 mi SSE 5.8 mph - N/A   Clear
1:15 AM 57.4 °F 40.1 °F 53% 30.16 in 10.0 mi SSE 4.6 mph - N/A   Clear
1:35 AM 56.8 °F 40.1 °F 54% 30.16 in 10.0 mi South 6.9 mph - N/A   Clear
1:55 AM 56.8 °F 39.7 °F 53% 30.15 in 10.0 mi South 8.1 mph - N/A   Clear
2:15 AM 58.1 °F 39.0 °F 49% 30.15 in 10.0 mi South 6.9 mph - N/A   Clear
2:35 AM 57.4 °F 39.4 °F 51% 30.15 in 10.0 mi South 8.1 mph - N/A   Clear
2:55 AM 57.2 °F 39.4 °F 51% 30.14 in 10.0 mi South 5.8 mph - N/A   Clear
3:15 AM 56.7 °F 39.2 °F 52% 30.14 in 10.0 mi South 5.8 mph - N/A   Clear
3:35 AM 57.2 °F 39.6 °F 52% 30.14 in 10.0 mi South 5.8 mph - N/A   Clear
3:55 AM 55.8 °F 40.1 °F 56% 30.14 in 10.0 mi South 3.5 mph - N/A   Clear
4:15 AM 56.5 °F 40.6 °F 55% 30.13 in 10.0 mi South 4.6 mph - N/A   Clear
4:35 AM 56.3 °F 41.0 °F 57% 30.14 in 10.0 mi West 3.5 mph - N/A   Clear
4:55 AM 53.6 °F 41.0 °F 62% 30.14 in 10.0 mi Calm Calm - N/A   Clear
5:15 AM 54.0 °F 40.5 °F 60% 30.14 in 10.0 mi Calm Calm - N/A   Clear
5:35 AM 54.0 °F 40.3 °F 60% 30.14 in 10.0 mi Calm Calm - N/A   Clear
5:55 AM 53.8 °F 40.3 °F 60% 30.14 in 10.0 mi Calm Calm - N/A   Clear
6:15 AM 52.9 °F 40.8 °F 64% 30.15 in 10.0 mi Calm Calm - N/A   Clear
6:35 AM 52.7 °F 41.7 °F 66% 30.15 in 10.0 mi South 3.5 mph - N/A   Clear
6:55 AM 54.0 °F 42.1 °F 64% 30.15 in 10.0 mi Calm Calm - N/A   Clear
7:15 AM 54.5 °F 43.0 °F 65% 30.16 in 10.0 mi South 3.5 mph - N/A   Clear
7:35 AM 55.8 °F 45.1 °F 67% 30.16 in 10.0 mi SSE 3.5 mph - N/A   Clear
7:55 AM 57.7 °F 45.7 °F 64% 30.16 in 10.0 mi SSE 4.6 mph - N/A   Clear
8:15 AM 60.4 °F 46.6 °F 60% 30.16 in 10.0 mi SSE 4.6 mph - N/A   Clear
8:35 AM 63.3 °F 46.6 °F 54% 30.16 in 10.0 mi South 4.6 mph - N/A   Clear
8:55 AM 65.5 °F 46.6 °F 50% 30.15 in 10.0 mi South 3.5 mph - N/A   Clear
9:15 AM 67.8 °F 47.3 °F 48% 30.15 in 10.0 mi Calm Calm - N/A   Clear
9:35 AM 70.9 °F 44.6 °F 39% 30.15 in 10.0 mi South 4.6 mph - N/A   Clear
9:55 AM 73.2 °F 40.3 °F 30% 30.15 in 10.0 mi Calm Calm - N/A   Clear
10:15 AM 74.3 °F 40.3 °F 29% 30.14 in 10.0 mi SW 5.8 mph - N/A   Clear
10:35 AM 74.5 °F 40.8 °F 30% 30.14 in 10.0 mi SW 6.9 mph - N/A   Clear
10:55 AM 75.2 °F 40.6 °F 29% 30.14 in 10.0 mi Calm Calm - N/A   Clear
11:15 AM 76.1 °F 40.8 °F 28% 30.14 in 10.0 mi West 4.6 mph 16.1 mph N/A   Clear
11:35 AM 76.3 °F 40.5 °F 28% 30.13 in 10.0 mi WSW 6.9 mph - N/A   Scattered Clouds
11:55 AM 77.0 °F 40.3 °F 27% 30.13 in 10.0 mi SSW 8.1 mph - N/A   Scattered Clouds
12:15 PM 77.2 °F 41.0 °F 27% 30.13 in 10.0 mi South 6.9 mph - N/A   Clear
12:35 PM 77.2 °F 41.2 °F 28% 30.12 in 10.0 mi SSW 9.2 mph - N/A   Clear
12:55 PM 79.0 °F 42.4 °F 27% 30.11 in 10.0 mi SW 12.7 mph 17.3 mph N/A   Clear
1:15 PM 79.0 °F 42.1 °F 27% 30.10 in 10.0 mi SW 9.2 mph 20.7 mph N/A   Clear
1:35 PM 79.2 °F 40.8 °F 25% 30.10 in 10.0 mi SW 12.7 mph 18.4 mph N/A   Clear
1:55 PM 79.9 °F 41.7 °F 26% 30.08 in 10.0 mi SW 11.5 mph 18.4 mph N/A   Clear
2:15 PM 79.9 °F 42.1 °F 26% 30.07 in 10.0 mi WSW 11.5 mph 16.1 mph N/A   Clear
2:35 PM 80.2 °F 41.0 °F 25% 30.06 in 10.0 mi WSW 8.1 mph - N/A   Clear
2:55 PM 79.9 °F 40.1 °F 24% 30.06 in 10.0 mi WSW 5.8 mph - N/A   Clear
3:15 PM 81.3 °F 38.8 °F 22% 30.05 in 10.0 mi WSW 4.6 mph 16.1 mph N/A   Clear
3:35 PM 81.5 °F 38.3 °F 21% 30.04 in 10.0 mi WSW 10.4 mph 18.4 mph N/A   Clear
3:55 PM 81.3 °F 37.6 °F 21% 30.04 in 10.0 mi WNW 5.8 mph - N/A   Clear
4:15 PM 81.3 °F 39.6 °F 23% 30.03 in 10.0 mi SW 6.9 mph - N/A   Clear
4:35 PM 81.5 °F 39.0 °F 22% 30.02 in 10.0 mi West 8.1 mph - N/A   Clear
4:55 PM 81.7 °F 36.7 °F 20% 30.02 in 10.0 mi West 5.8 mph - N/A   Clear
5:15 PM 81.7 °F 37.9 °F 21% 30.01 in 10.0 mi West 6.9 mph - N/A   Clear
5:35 PM 81.9 °F 38.3 °F 21% 30.01 in 10.0 mi SW 8.1 mph - N/A   Clear
5:55 PM 81.5 °F 38.1 °F 21% 30.01 in 10.0 mi SW 5.8 mph - N/A   Clear
6:15 PM 81.1 °F 37.4 °F 21% 30.01 in 10.0 mi West 4.6 mph - N/A   Clear
6:35 PM 81.3 °F 36.1 °F 20% 30.00 in 10.0 mi West 3.5 mph - N/A   Clear
6:55 PM 81.0 °F 36.3 °F 20% 29.99 in 10.0 mi WSW 3.5 mph - N/A   Clear
7:15 PM 79.9 °F 36.3 °F 21% 29.99 in 10.0 mi Calm Calm - N/A   Clear
7:35 PM 79.2 °F 37.8 °F 23% 29.99 in 10.0 mi SW 3.5 mph - N/A   Clear
7:55 PM 77.7 °F 39.0 °F 25% 29.99 in 10.0 mi SW 3.5 mph - N/A   Clear
8:15 PM 76.5 °F 38.7 °F 26% 29.99 in 10.0 mi Calm Calm - N/A   Clear
8:35 PM 75.2 °F 38.7 °F 27% 30.00 in 10.0 mi SSW 3.5 mph - N/A   Clear
8:55 PM 74.3 °F 38.3 °F 27% 30.00 in 10.0 mi Calm Calm - N/A   Clear
9:15 PM 74.3 °F 38.8 °F 28% 30.00 in 10.0 mi Calm Calm - N/A   Clear
9:35 PM 71.8 °F 39.0 °F 30% 30.00 in 10.0 mi South 3.5 mph - N/A   Clear
9:55 PM 71.6 °F 39.2 °F 31% 30.01 in 10.0 mi South 3.5 mph - N/A   Clear
10:15 PM 68.4 °F 40.1 °F 36% 30.01 in 10.0 mi South 5.8 mph - N/A   Clear
10:35 PM 67.8 °F 41.9 °F 39% 30.01 in 10.0 mi South 6.9 mph - N/A   Clear
10:55 PM 69.1 °F 43.3 °F 39% 30.01 in 10.0 mi South 9.2 mph - N/A   Clear
11:15 PM 68.9 °F 43.7 °F 40% 30.00 in 10.0 mi SSW 8.1 mph - N/A   Clear
11:35 PM 68.5 °F 43.5 °F 40% 30.00 in 10.0 mi SSW 9.2 mph - N/A   Clear
11:55 PM 68.4 °F 43.7 °F 41% 30.00 in 10.0 mi SSW 10.4 mph - N/A   Clear